Theta_e
347 347 346 345 343 339 342 345 345 347 348 350 351 352 353 355 356 358 357 358 359 356 353 354 355 356 354 354 354 354 354 355 350 344 346 347 347 349 348 345 344 343
347 347 346 346 344 340 341 344 343 343 346 347 349 350 352 354 356 357 357 359 360 357 354 353 354 355 354 354 355 355 355 356 354 350 348 347 347 351 350 346 345 346
347 347 346 346 345 342 340 342 342 341 344 348 348 350 351 353 354 356 357 359 360 359 356 354 355 355 354 353 354 354 355 356 355 354 352 348 347 350 349 347 348 349
348 348 346 345 347 345 341 341 341 341 344 347 349 349 350 351 352 355 358 359 360 359 358 356 354 354 353 353 354 355 355 356 356 356 356 354 351 349 349 351 352 352
349 349 348 346 346 347 345 341 340 339 341 346 349 349 350 350 351 354 357 359 359 359 358 356 354 355 355 354 354 355 355 356 356 357 357 358 356 352 351 354 356 356
351 350 349 348 347 347 347 343 340 338 337 340 346 350 350 350 350 351 355 357 358 359 358 357 355 355 355 355 355 355 355 356 357 358 358 358 358 355 354 355 357 358
352 351 350 350 349 347 348 346 343 342 340 339 343 347 350 350 348 349 352 355 356 358 358 356 356 355 355 356 356 356 355 355 357 358 357 356 358 358 356 356 356 357
352 352 350 350 349 348 348 349 348 346 345 343 342 343 346 347 348 348 350 352 354 357 358 357 356 355 356 356 357 357 355 354 356 357 356 355 357 359 359 357 356 357
352 352 352 351 350 349 348 348 349 349 348 347 344 343 344 345 346 347 350 351 353 356 358 357 356 356 357 358 357 356 356 355 354 354 353 354 356 358 359 358 357 356
353 352 352 352 351 349 348 347 348 349 349 349 347 345 345 344 345 347 348 350 353 356 357 356 356 356 358 359 358 356 355 356 356 352 350 352 354 356 358 359 359 358
354 353 352 352 351 350 349 347 346 347 348 350 350 348 347 345 345 348 350 351 353 354 356 356 356 357 358 359 359 357 355 355 356 353 352 353 354 354 356 358 358 357
354 353 352 352 351 350 349 348 347 346 347 349 351 351 349 348 347 349 352 352 353 354 355 356 356 357 358 359 359 358 357 356 356 353 352 354 356 356 357 356 356 355
355 354 353 352 352 351 349 348 347 347 346 347 349 351 351 351 349 350 351 353 353 353 354 355 356 357 358 359 359 359 359 359 358 356 354 355 357 358 358 357 356 355
356 355 354 353 353 352 351 350 349 348 347 346 348 350 351 352 351 350 351 352 354 355 354 355 355 357 358 359 359 359 360 360 359 358 357 355 356 357 357 357 356 355
358 357 356 354 354 352 352 351 350 349 349 347 347 349 350 351 351 351 350 351 353 354 356 356 356 357 357 358 358 358 358 359 359 359 358 357 356 356 357 357 356 355
360 359 358 356 355 354 354 352 351 350 350 349 348 348 349 350 351 351 351 351 353 354 356 356 356 356 356 356 357 358 359 359 358 358 359 358 357 356 356 357 357 355
361 360 359 358 356 355 355 353 352 352 351 351 351 350 350 351 351 352 351 351 352 353 355 357 357 356 356 356 356 357 358 359 359 359 359 358 358 357 356 357 358 358
362 361 361 360 358 357 356 355 354 353 352 352 352 352 351 352 352 352 352 352 351 352 353 356 356 356 356 356 356 357 358 358 358 358 358 358 358 357 356 356 357 358
363 362 361 360 360 359 357 357 355 354 354 353 353 353 353 352 353 352 352 353 352 353 353 354 354 356 356 356 356 357 357 358 358 357 358 358 358 357 357 356 356 357
364 363 363 361 361 360 359 358 356 355 355 354 354 355 354 354 353 352 353 353 353 353 354 353 354 354 355 355 356 357 358 358 358 358 357 357 357 357 357 357 357 356
365 363 363 362 361 361 360 359 357 357 356 355 355 355 355 354 354 353 353 353 354 354 354 354 354 354 354 355 356 357 357 357 357 357 357 357 357 357 357 357 357 357
365 364 363 362 362 361 360 359 359 358 357 356 356 355 355 355 354 354 354 353 354 355 355 354 355 354 355 356 355 356 357 357 357 356 356 356 356 357 357 357 357 357
365 365 364 363 362 361 361 360 359 359 358 357 357 356 356 356 355 354 354 353 353 354 354 355 356 355 355 355 355 356 356 356 357 356 355 356 355 355 356 357 357 357
365 365 365 363 363 362 361 361 360 359 359 358 357 357 356 356 356 356 354 353 353 354 355 355 355 356 356 356 355 356 357 357 357 357 356 355 355 355 355 355 356 357
366 365 365 364 364 363 362 361 360 359 359 359 358 358 357 356 357 357 355 355 354 354 355 356 356 356 356 356 357 357 357 357 357 357 356 357 357 357 357 357 356 356
366 366 366 365 364 364 363 362 361 360 360 359 359 358 358 357 357 357 357 357 355 355 355 355 356 357 357 358 357 357 358 358 358 357 358 358 358 358 358 358 358 358
Wind_Speed
39 38 36 36 36 36 34 30 29 31 32 32 31 29 29 28 27 26 24 23 21 19 20 21 19 17 15 14 15 13 12 12 13 15 16 15 14 12 12 13 10 9
40 39 37 37 37 37 37 34 30 29 31 33 32 30 29 28 28 27 25 25 23 20 20 21 20 19 17 16 16 15 14 13 12 14 16 16 16 15 14 14 13 12
40 39 38 38 39 39 38 37 33 30 29 31 33 32 30 29 28 27 26 25 24 22 21 21 21 20 19 18 17 16 16 15 14 13 14 16 17 17 17 16 14 13
40 40 40 40 40 40 39 38 35 32 29 30 32 32 30 29 27 27 26 26 26 24 23 23 22 22 20 20 19 18 17 17 15 14 14 14 15 17 18 17 15 14
42 41 40 40 40 41 40 39 37 34 32 31 31 32 31 29 27 26 26 27 27 26 25 25 25 24 22 22 22 21 19 18 17 16 16 16 15 16 17 18 16 15
41 41 39 38 38 39 40 40 39 38 36 34 33 32 32 30 28 28 28 28 28 28 27 27 27 26 25 24 24 24 23 21 20 19 19 18 17 17 18 19 19 17
41 41 40 38 37 37 39 40 40 39 38 37 35 35 34 32 31 30 29 29 30 30 29 29 30 30 28 27 27 27 26 25 24 22 21 21 19 19 19 19 19 19
42 41 40 39 37 37 37 38 39 40 40 38 37 37 36 35 34 32 32 31 31 32 32 31 31 31 31 30 30 29 28 27 27 26 25 23 21 21 21 19 19 20
41 40 40 39 38 37 37 37 38 39 39 39 38 38 37 37 36 34 34 34 33 34 34 33 32 32 32 33 33 32 30 29 28 28 28 27 25 23 22 21 20 21
40 40 40 39 39 38 38 38 38 37 38 38 39 38 38 38 37 36 35 35 35 35 35 35 34 33 33 34 33 33 32 31 29 29 28 28 28 27 25 24 22 22
40 40 39 40 40 40 40 39 39 37 37 38 38 38 38 38 38 37 37 36 37 37 37 37 36 35 34 34 34 34 34 33 31 30 29 28 28 28 27 26 25 25
40 40 40 40 41 41 41 40 39 38 37 37 38 38 38 38 38 38 38 38 39 38 38 38 38 37 36 35 35 35 34 34 33 32 31 30 28 28 28 27 27 27
40 40 40 40 41 41 41 40 39 39 39 38 38 38 38 38 39 39 39 39 40 40 39 39 38 38 37 36 36 35 35 35 34 34 33 32 31 30 28 28 27 27
39 39 40 40 40 41 40 39 39 39 40 39 38 38 38 38 39 40 40 39 40 41 41 40 39 39 38 38 37 36 35 35 35 34 34 34 34 33 31 29 28 27
37 37 38 39 39 39 40 40 39 39 39 39 39 39 39 39 39 39 39 39 39 40 40 40 39 40 40 39 38 37 37 36 36 36 35 35 34 34 33 32 31 30
37 36 37 37 38 39 39 40 39 39 39 39 39 40 40 39 39 38 39 39 39 39 39 39 40 40 41 41 40 39 38 38 37 37 36 35 34 34 33 33 33 32
37 37 36 37 38 39 39 40 40 39 38 39 39 40 40 39 39 38 39 39 40 39 39 39 40 41 42 42 42 41 40 39 37 37 36 36 35 34 33 34 34 33
37 38 37 38 38 39 39 40 39 39 39 38 39 39 40 40 39 39 40 40 40 40 40 40 41 42 42 42 43 43 42 40 38 37 36 36 35 35 35 35 34 33
39 38 38 38 39 39 39 39 39 40 39 39 39 39 40 40 40 40 40 40 40 40 40 41 42 43 43 43 43 44 44 42 40 38 37 36 35 35 35 35 35 34
39 39 39 39 39 39 39 39 39 40 40 39 38 38 39 40 41 41 41 41 41 41 41 42 43 44 44 44 44 44 44 44 42 39 37 36 36 36 35 35 35 35
39 39 38 39 39 39 39 39 39 39 39 39 38 38 39 40 41 41 42 42 42 42 41 42 43 45 46 45 45 45 44 44 43 40 37 36 36 35 35 36 36 35
37 38 38 38 39 39 39 39 39 39 39 39 38 37 38 39 40 41 42 42 42 41 41 41 43 45 46 46 46 45 44 44 44 41 37 35 35 35 35 36 36 36
36 37 38 38 38 38 39 39 39 40 39 39 38 37 37 38 40 40 41 41 42 41 41 42 43 44 45 46 46 45 44 43 43 42 39 37 37 37 36 36 37 37
37 38 38 38 39 39 39 39 39 39 39 39 38 37 37 37 38 38 39 40 41 42 42 42 42 43 44 45 46 46 44 43 42 41 40 39 39 38 38 37 37 37
39 41 40 40 40 40 40 39 39 39 39 39 39 38 37 36 36 36 37 39 41 42 43 42 42 42 43 44 45 45 45 44 42 39 38 38 38 38 38 38 39 39
39 42 43 42 41 41 40 39 40 39 38 39 39 38 36 35 34 35 36 38 39 40 41 42 42 41 41 43 44 44 44 44 41 38 38 38 38 38 37 37 38 39
Wind_Direction
203 204 203 203 203 201 200 201 203 204 205 205 203 201 201 202 203 206 209 210 214 212 203 203 208 211 217 217 211 210 212 217 217 209 206 204 200 202 212 221 223 219
203 204 203 202 203 203 202 202 204 206 207 208 207 205 203 203 204 207 210 210 213 212 201 200 206 211 214 212 210 213 214 217 217 213 211 208 204 206 214 219 221 224
205 205 204 203 202 203 204 205 207 208 207 207 208 207 205 204 205 208 211 211 213 211 204 202 205 209 212 212 212 215 217 219 218 212 211 212 211 214 217 216 217 226
206 206 206 205 204 204 205 206 209 209 207 206 207 208 207 207 208 210 212 213 213 212 207 205 206 207 210 213 213 215 218 220 217 211 211 215 218 218 215 213 216 227
207 208 208 207 206 206 206 208 210 211 210 208 207 208 209 210 211 212 213 214 214 214 211 208 209 209 209 211 212 215 219 219 218 215 217 221 221 216 213 214 221 231
208 209 210 210 209 208 208 210 212 212 213 212 210 208 210 212 216 217 216 216 216 216 215 211 211 212 212 211 212 216 219 220 219 217 221 225 224 219 215 217 225 232
207 210 211 212 211 210 210 211 212 213 213 213 212 211 212 214 218 219 219 219 218 218 218 215 212 213 214 213 213 216 219 220 219 217 219 224 225 222 219 219 225 230
207 209 211 213 213 213 212 212 212 212 213 213 213 214 215 216 218 219 219 220 220 220 219 218 216 215 215 214 215 218 220 220 219 219 220 222 223 223 221 220 223 227
207 208 210 212 214 215 215 214 213 213 213 213 214 215 216 217 218 219 220 221 221 220 220 219 219 218 217 216 218 219 219 218 218 220 221 222 222 223 222 220 221 224
206 208 210 211 214 216 217 217 216 215 214 213 214 215 216 217 219 220 220 221 220 220 220 219 219 220 219 219 220 220 218 218 219 220 220 221 223 223 222 220 221 223
207 207 209 211 213 216 218 219 218 218 217 216 215 215 216 217 218 219 219 220 219 219 219 220 220 221 220 220 221 220 219 218 220 220 220 221 223 224 224 224 225 227
207 207 208 210 213 215 218 219 220 219 218 217 216 216 216 216 217 217 218 219 219 219 220 220 221 221 221 222 222 221 221 220 221 222 222 223 223 225 227 228 229 231
207 208 209 211 213 215 217 218 219 219 219 219 218 217 216 216 217 217 218 219 219 219 220 221 221 221 222 222 222 222 222 222 223 224 224 224 225 227 229 230 232 233
208 209 210 211 213 215 217 218 219 219 219 219 218 217 217 217 217 218 219 220 220 220 220 221 221 221 222 222 222 223 224 224 225 225 225 225 226 228 229 231 233 236
209 210 211 212 213 215 216 217 218 219 219 219 219 218 218 218 219 219 219 220 220 221 221 221 221 221 222 222 222 222 223 225 226 227 227 227 227 229 230 232 234 237
209 210 212 212 213 215 216 217 218 218 219 219 219 219 218 218 219 219 219 220 221 221 221 221 221 222 223 224 223 223 223 224 225 227 227 228 229 230 231 232 235 237
208 210 211 213 214 215 216 217 217 218 219 219 219 219 218 218 218 218 219 220 221 221 221 221 222 224 225 225 225 225 223 223 224 226 227 228 230 231 232 233 234 237
207 208 210 212 213 215 216 217 217 217 218 218 218 218 218 217 217 217 218 219 220 221 222 222 224 226 226 227 227 226 225 224 224 225 226 228 229 231 233 234 235 236
205 207 209 211 212 214 216 217 217 217 218 218 218 218 217 217 217 217 218 219 219 220 222 223 225 227 227 228 228 228 227 225 225 226 227 228 229 231 233 235 236 238
204 205 207 210 211 213 214 215 217 217 217 218 218 218 217 217 217 217 217 218 219 220 221 223 226 227 228 229 229 229 228 227 225 226 227 229 230 231 233 235 236 238
204 204 206 208 210 211 213 214 216 217 217 217 217 217 217 217 217 217 218 219 219 220 221 223 226 228 229 229 230 230 230 228 226 226 228 230 232 233 234 236 237 238
206 205 206 207 209 210 212 213 214 216 217 217 217 218 218 218 218 218 218 219 219 220 221 223 226 228 229 229 230 230 230 229 227 227 228 231 233 235 236 237 239 239
209 208 207 207 208 209 211 212 214 215 216 217 217 218 218 218 218 219 219 220 220 220 221 223 226 228 229 230 231 230 229 227 227 227 228 231 234 236 237 239 240 240
212 211 209 208 208 210 211 212 213 214 215 216 217 218 219 219 219 219 220 220 221 221 221 223 226 229 229 230 231 231 228 227 226 226 227 230 233 236 238 239 241 242
214 212 211 209 209 211 212 212 212 214 214 215 216 219 221 221 220 219 220 221 222 222 223 223 226 229 230 231 231 231 229 227 225 224 225 229 232 235 237 239 241 243
214 211 211 211 211 211 212 211 212 213 213 214 215 217 220 222 221 220 220 221 222 223 224 225 226 228 230 231 231 231 229 227 224 223 225 228 231 233 236 238 240 242